RH
13 13 13 11 11 9 11 13 8 43 38 17 36 38 45 46 48 42 35 38 53 64 68 62 63 41 34 43 50 60 46 35 28 56 19 69 95 100 92 97 95 84 84 88 80 78 80
14 14 14 12 12 10 11 11 9 42 17 26 41 46 51 47 56 44 40 34 46 57 68 62 72 55 49 59 62 46 33 35 68 27 28 95 100 99 94 88 83 78 72 61 58 63 66
15 15 13 13 14 11 12 10 21 31 17 39 47 49 44 54 57 47 48 38 58 55 62 69 88 90 71 52 54 32 32 84 48 29 76 70 88 91 92 94 77 67 59 32 50 57 41
15 14 14 15 14 14 13 10 24 22 26 39 41 47 36 54 51 53 48 60 64 61 67 82 88 62 33 34 35 28 31 64 38 81 100 100 98 99 87 85 72 60 29 18 20 14 8
17 14 13 13 16 16 14 11 26 20 28 33 39 37 63 56 55 64 78 68 66 73 85 87 28 23 41 36 32 28 33 53 47 76 99 99 97 94 87 73 60 43 30 38 32 24 18
20 14 13 14 20 17 14 11 42 16 26 31 35 47 58 60 79 82 85 84 79 48 28 26 35 38 43 37 29 28 41 36 55 78 80 63 61 77 62 44 37 26 69 34 36 36 28
25 17 18 22 24 19 14 12 40 17 26 39 25 60 57 76 78 90 86 24 21 28 30 35 35 25 17 16 18 29 24 26 76 88 62 32 59 61 55 54 29 30 43 52 76 78 58
25 26 21 24 26 19 13 20 25 18 31 40 36 64 68 72 89 42 19 21 24 26 29 27 23 20 18 16 16 16 25 30 50 65 33 28 46 35 49 88 81 71 38 39 35 48 40
27 29 28 28 23 18 11 27 14 20 39 34 33 63 64 57 34 20 21 19 21 22 20 18 15 14 13 12 11 10 10 15 22 45 38 18 25 59 82 85 79 89 78 77 72 46 28
30 30 28 28 21 15 12 18 12 25 37 12 24 49 35 39 18 17 15 16 16 16 19 22 25 26 27 28 29 26 16 10 9 12 30 51 28 35 36 26 45 79 83 77 72 63 56
34 29 30 26 19 12 13 20 10 32 36 4 37 28 32 16 15 14 15 20 24 24 27 21 17 15 16 19 21 26 24 27 26 25 25 36 31 25 23 25 28 31 61 68 66 66 61
38 31 28 23 17 16 14 22 8 38 31 7 24 26 16 13 12 17 22 24 24 22 16 13 13 12 13 14 16 17 19 23 33 29 26 21 18 20 19 18 18 20 22 25 31 32 33
38 30 28 24 21 16 20 18 11 41 13 12 25 18 11 10 18 21 22 18 15 14 10 10 10 11 13 11 13 16 19 21 22 26 25 23 22 22 22 26 25 30 31 29 27 25 23
33 30 29 25 20 11 30 11 18 40 4 18 19 12 10 15 20 20 15 11 13 10 10 11 11 11 12 11 11 9 7 8 8 9 12 10 12 13 14 13 14 15 15 16 19 22 21
30 30 29 24 18 12 41 7 31 34 7 16 12 9 11 18 19 15 10 11 16 11 12 12 13 14 14 13 12 10 8 6 6 9 13 14 14 18 20 20 19 21 23 26 28 29 25
29 28 27 24 10 31 27 10 44 19 12 13 10 10 16 18 15 10 10 22 16 14 13 13 13 11 9 6 6 7 6 8 11 14 16 18 24 22 24 26 28 26 19 17 18 17 17
30 29 28 19 13 47 13 21 47 8 13 11 10 15 18 15 13 8 12 18 13 14 11 8 7 5 6 9 7 7 8 12 14 23 23 21 25 29 30 28 18 16 17 19 20 19 19
30 30 30 13 26 56 15 36 42 7 12 9 12 17 18 13 9 8 12 12 12 12 9 8 6 8 25 24 14 12 13 14 24 19 24 29 29 30 31 23 18 18 18 16 15 15 15
33 32 25 15 62 58 17 40 31 7 10 10 15 19 16 13 7 8 9 10 12 10 9 8 6 18 30 26 19 17 15 22 22 24 28 27 28 30 26 22 19 18 14 14 16 16 16
35 31 20 32 77 52 22 41 18 7 9 11 18 19 14 11 8 9 9 10 12 10 9 7 5 16 29 22 18 17 19 26 20 26 28 26 29 27 26 23 19 17 16 18 18 17 18
39 36 29 70 79 31 32 40 11 8 9 11 17 16 12 9 8 8 9 10 11 10 8 6 4 11 27 26 21 21 27 25 24 30 31 26 25 24 26 25 23 21 19 21 20 20 19
41 34 77 92 50 30 40 36 9 8 10 12 16 16 12 12 11 9 9 9 10 8 9 7 5 4 21 30 27 20 27 27 27 31 34 29 29 26 24 23 23 23 24 24 23 22 22
40 38 93 82 35 36 41 31 8 8 10 13 16 15 13 10 9 8 10 9 8 9 8 7 6 5 6 24 27 21 23 26 27 31 35 34 28 25 22 21 21 22 24 24 24 24 23
36 88 100 59 41 43 40 25 8 8 9 13 16 14 12 10 10 9 10 9 9 9 9 7 6 6 4 10 22 25 17 18 21 28 32 35 35 28 20 20 17 20 22 23 23 23 23
39 56 97 46 63 47 40 17 8 7 8 12 14 15 14 11 11 10 10 9 8 8 9 8 6 5 4 4 10 21 28 21 17 22 31 34 35 32 24 20 18 19 23 24 23 23 25
62 100 79 73 66 67 28 13 8 6 7 9 11 13 12 13 12 11 11 9 10 10 9 8 7 6 5 4 4 6 12 22 25 18 21 30 35 35 30 24 21 22 25 25 24 22 24
100 97 86 80 85 61 18 13 8 7 59 15 9 11 11 11 10 10 10 10 10 10 10 9 8 7 5 4 4 5 6 10 18 24 22 22 29 32 32 29 21 26 27 26 24 24 23
100 96 95 81 97 44 18 14 10 9 10 8 7 8 8 9 10 10 10 11 12 12 10 9 9 7 5 4 4 4 6 8 10 17 25 23 19 24 29 28 21 25 23 24 24 23 25
100 100 99 96 100 84 24 16 11 12 14 9 7 6 6 6 7 7 9 11 12 11 10 9 8 6 4 4 4 5 6 7 13 16 32 36 42 32 29 25 23 24 22 23 23 24 30
Wind_Speed
43 45 47 40 43 43 42 40 34 31 23 21 22 24 23 20 20 18 18 17 17 19 16 12 13 13 13 14 17 19 19 22 22 18 26 35 33 34 33 26 21 15 9 5 2 1 3
46 46 50 43 44 44 42 39 31 26 21 19 23 20 20 23 21 19 17 16 17 18 16 14 16 15 15 16 17 18 24 26 24 29 36 36 32 31 21 13 12 15 7 5 10 8 8
49 47 52 47 45 41 41 35 28 22 19 19 18 19 19 18 17 18 15 15 16 16 17 15 12 8 8 12 18 23 29 27 29 35 38 36 33 31 20 14 15 16 7 7 9 13 8
52 51 52 47 45 43 41 31 27 21 19 19 21 20 19 16 13 16 16 16 16 16 15 14 13 7 11 15 19 29 33 31 37 37 31 26 23 24 15 10 11 13 7 10 11 9 10
53 52 50 49 48 43 41 31 28 22 20 17 17 19 12 16 13 14 12 12 12 12 14 13 9 11 17 18 20 30 32 34 39 38 29 24 22 17 20 13 13 14 18 12 11 10 10
52 52 49 50 47 42 39 30 26 24 19 17 18 10 8 15 16 13 12 11 11 11 10 13 15 16 18 21 23 29 25 34 41 39 34 32 31 24 13 18 18 20 16 15 13 9 7
51 50 49 48 45 40 38 30 24 22 18 15 14 9 9 17 17 17 12 11 13 16 18 20 20 19 19 18 21 26 22 29 37 32 18 11 16 18 23 22 20 21 25 12 13 9 7
53 48 49 47 44 35 34 26 23 21 17 15 13 9 11 19 15 11 13 17 19 22 24 23 20 18 17 19 20 20 26 28 25 28 21 23 24 29 24 23 20 15 19 11 5 2 7
54 49 47 46 39 31 28 23 23 20 16 14 19 12 8 11 10 13 18 21 21 21 22 22 21 20 20 19 21 21 23 25 27 30 26 24 26 29 23 20 15 11 11 8 7 6 8
54 48 46 41 35 30 25 24 23 19 15 14 20 15 9 10 15 20 22 23 24 25 25 23 23 22 22 21 21 19 20 20 18 19 21 17 20 21 16 15 15 14 15 14 14 14 14
53 49 44 38 33 28 25 25 24 20 16 18 21 15 13 19 22 26 27 26 26 25 24 22 22 21 22 20 20 19 18 16 15 13 16 12 15 18 17 14 12 11 15 16 16 19 21
50 46 41 37 34 28 27 27 25 21 17 24 23 18 24 27 30 30 27 25 25 27 23 24 23 20 19 16 16 15 15 15 14 14 16 16 15 15 15 14 13 11 13 15 17 19 23
50 48 42 40 35 29 30 29 27 22 21 28 24 30 33 33 31 28 27 26 25 25 25 23 20 18 16 16 14 14 13 13 13 17 18 16 16 16 15 14 13 14 15 17 19 20 23
56 50 46 41 36 32 33 31 28 25 28 31 31 37 37 33 31 30 29 29 27 25 22 21 18 16 13 11 11 12 13 14 15 14 15 14 13 13 13 12 13 15 16 16 16 15 16
61 54 47 41 36 37 36 33 30 27 34 36 38 42 38 35 34 32 31 29 24 21 18 15 13 12 12 13 13 13 14 13 13 13 13 13 11 10 9 9 9 8 9 8 9 10 12
61 53 47 41 41 39 37 33 33 31 39 41 44 43 39 38 36 35 33 28 20 18 15 13 11 12 14 14 14 15 15 12 11 13 14 13 12 11 11 11 10 9 5 3 4 5 5
59 52 45 42 44 40 38 35 35 38 44 46 48 45 41 39 38 37 33 28 22 17 12 8 7 8 10 12 13 15 13 12 14 15 15 14 13 13 13 11 8 7 5 3 2 4 6
58 51 45 46 42 42 37 39 37 43 47 49 50 46 43 41 41 38 33 27 22 18 12 7 5 4 8 9 11 15 16 16 16 15 15 14 13 14 10 10 7 5 3 2 5 8 10
55 49 45 45 43 42 38 40 39 46 49 51 51 48 45 43 41 38 33 27 22 16 9 5 4 5 7 10 14 16 18 19 18 15 14 15 14 13 12 10 8 8 6 7 7 8 11
53 48 45 43 46 40 40 41 41 48 51 53 53 50 47 44 41 37 33 27 21 15 9 6 3 4 6 10 14 17 19 19 16 16 17 15 14 13 11 10 11 12 11 11 11 12 13
51 46 45 42 46 40 42 41 43 49 53 54 53 50 46 45 42 38 33 27 22 15 9 5 2 4 6 8 13 17 18 17 17 18 18 16 16 13 12 14 15 16 16 17 16 18 19
48 48 42 45 42 40 42 42 44 51 54 53 53 50 47 44 42 40 35 28 23 16 10 8 6 3 8 9 12 15 18 19 19 18 20 19 18 18 18 18 18 19 21 22 21 23 24
46 46 44 44 40 41 43 41 45 53 55 53 53 51 49 46 45 41 35 29 24 18 12 11 10 7 7 10 11 15 19 22 23 23 24 24 23 23 22 23 24 23 25 27 26 26 29
47 44 43 42 40 42 41 40 45 53 55 53 51 50 49 47 45 41 36 31 26 21 18 15 13 11 11 12 16 18 19 20 23 26 26 27 28 27 27 28 31 26 28 30 31 30 32
45 44 43 40 40 41 38 39 44 53 56 53 51 50 48 47 44 43 38 33 30 26 22 18 18 16 15 15 17 19 20 21 24 27 28 29 30 32 33 32 34 30 29 34 36 34 35
48 42 45 40 40 39 35 38 44 50 54 56 54 50 48 46 45 43 39 36 35 29 26 24 24 22 21 20 19 20 23 24 25 26 29 31 33 35 36 38 39 34 35 38 40 38 40
42 48 42 41 40 36 35 37 42 47 46 52 54 52 49 47 46 44 41 39 36 31 29 28 28 26 26 25 25 25 25 27 28 27 28 34 37 39 41 43 43 39 40 41 42 43 42
48 45 43 41 37 33 33 36 40 44 51 51 52 52 51 49 47 45 42 40 37 35 35 33 32 31 31 31 31 30 32 32 32 32 32 35 39 40 42 44 47 42 45 45 44 45 45
47 46 44 39 36 30 32 35 39 43 46 47 48 48 48 46 44 43 42 42 40 39 38 38 36 35 35 35 35 35 37 37 37 37 36 37 39 41 42 42 43 44 47 45 46 48 47
Wind_Direction
267 273 280 288 293 302 309 309 304 302 280 273 280 280 281 277 282 246 237 241 245 252 248 233 240 221 202 189 184 186 186 171 165 171 167 160 155 165 177 185 183 153 163 151 182 42 220
263 270 276 284 290 297 306 307 302 294 275 272 281 275 280 280 264 239 234 239 244 247 230 241 230 224 214 200 195 187 177 162 163 167 160 162 165 167 155 176 174 171 146 229 221 216 228
260 265 274 280 286 293 304 306 298 283 270 277 269 282 288 271 244 234 231 234 242 218 219 228 240 219 209 201 198 184 173 162 166 164 164 174 178 167 174 191 176 160 196 275 235 235 224
256 262 271 276 283 294 298 300 293 273 265 269 283 275 287 247 240 232 227 232 221 216 215 222 237 243 198 197 193 184 173 173 167 162 162 168 165 178 185 191 215 183 187 168 163 174 169
253 257 266 272 281 290 294 294 284 264 260 271 271 287 272 219 234 213 207 206 207 202 210 229 227 178 168 172 185 182 182 178 168 166 164 166 160 175 188 194 224 213 160 159 157 166 173
251 254 262 269 277 288 290 292 282 263 261 258 276 267 257 207 198 191 191 199 203 205 192 159 147 153 166 173 177 190 189 185 173 174 176 187 191 186 191 181 158 159 152 172 158 158 193
248 251 258 266 273 284 283 288 272 256 259 254 263 235 215 189 206 194 188 198 177 156 149 141 138 141 154 154 163 184 188 189 173 172 186 203 190 185 172 166 168 173 186 174 152 173 220
244 248 255 262 268 276 277 280 258 252 257 247 221 210 213 222 208 189 175 155 150 146 140 138 140 144 147 152 154 167 182 183 169 190 204 173 173 166 160 168 174 180 165 173 150 189 258
239 242 250 258 264 268 268 262 247 249 251 253 206 195 210 214 178 165 154 149 144 144 141 140 139 139 141 140 140 153 160 172 185 185 191 170 169 170 178 185 188 187 171 207 234 272 289
232 236 245 252 254 254 259 248 242 243 241 240 196 192 212 187 161 157 151 148 145 141 138 140 142 142 142 140 138 141 150 161 176 182 177 175 193 183 190 193 195 197 215 205 233 251 278
224 231 236 240 242 243 250 236 237 234 237 204 187 185 183 164 158 151 147 148 147 146 147 145 144 146 143 145 147 154 160 165 173 186 188 198 187 179 190 191 198 196 218 232 244 262 271
211 223 227 227 233 240 230 228 230 225 228 195 185 172 163 162 154 153 154 155 154 156 154 152 151 149 148 156 166 173 172 171 180 201 206 208 200 200 206 202 201 210 223 233 240 245 259
202 211 213 223 228 233 222 221 222 217 213 187 175 166 163 160 158 159 161 161 163 163 155 154 151 151 160 165 172 183 196 193 192 201 208 207 204 211 215 214 218 221 227 236 240 245 252
193 200 208 216 221 219 214 217 213 214 198 177 171 166 165 163 165 167 169 167 166 161 160 159 163 166 175 182 188 200 206 201 201 201 207 218 218 225 230 229 229 232 238 245 252 252 257
195 198 204 209 214 212 207 211 205 210 187 173 170 168 168 169 172 173 173 170 167 167 167 170 178 188 203 210 215 223 223 223 221 214 213 214 218 216 205 190 188 194 210 228 246 260 270
196 196 200 202 206 206 205 203 201 203 183 172 170 171 173 175 176 177 177 171 163 169 176 186 203 223 235 232 226 222 224 224 216 188 204 201 185 183 188 185 178 178 194 218 257 279 310
193 193 196 202 201 202 204 197 200 193 183 174 172 174 178 181 181 182 181 176 169 169 191 209 230 231 229 222 214 210 213 196 189 180 186 183 182 180 179 176 172 175 176 163 338 351 352
191 192 197 199 200 200 201 195 200 187 182 175 174 178 184 185 185 184 184 182 181 189 206 223 245 206 211 212 203 207 201 194 186 186 183 179 179 172 188 187 188 189 197 255 308 316 324
189 190 198 196 199 199 198 196 199 185 182 177 177 182 187 189 188 189 191 191 193 201 214 246 254 188 194 186 190 194 195 190 187 190 185 180 181 189 197 204 206 219 260 282 298 308 318
186 192 198 196 196 197 198 197 195 182 181 179 180 188 189 191 190 195 194 193 202 210 214 246 256 205 181 184 189 190 187 193 194 192 191 189 193 199 209 218 223 241 266 277 279 297 314
186 194 196 196 195 196 197 196 191 181 183 182 186 192 192 191 193 198 193 192 203 217 222 253 255 207 196 190 202 195 194 201 206 201 201 206 206 213 223 232 246 261 271 278 288 303 314
187 194 193 191 192 195 197 194 188 181 186 186 189 193 194 195 199 203 199 201 206 217 223 245 262 246 220 202 208 208 208 213 215 215 215 218 224 232 241 249 257 264 275 285 296 301 310
191 192 195 193 191 196 196 193 188 183 188 189 192 195 197 198 204 203 206 213 215 222 230 246 259 277 260 226 221 226 221 222 221 223 224 227 234 243 249 256 263 267 276 283 290 298 307
191 191 193 190 194 196 194 192 189 185 190 192 194 198 201 203 208 213 215 217 223 228 234 243 255 265 265 239 230 235 239 237 234 234 238 239 244 252 255 260 264 270 277 286 291 298 303
191 194 192 190 195 193 193 192 191 187 192 195 197 201 205 209 212 219 221 225 228 231 237 250 258 258 261 259 248 244 248 252 248 244 244 247 251 257 262 266 272 275 280 286 292 296 299
189 195 185 192 188 192 193 193 192 190 193 199 200 203 207 211 216 220 225 228 232 235 241 248 257 262 265 266 269 259 249 249 252 255 255 255 257 259 265 268 271 275 280 285 291 298 296
196 182 184 188 187 192 192 192 192 190 184 203 205 208 210 214 218 224 227 232 236 241 246 251 255 260 265 267 269 270 268 262 258 257 253 254 256 259 262 267 271 276 282 287 292 292 298
180 180 185 180 186 189 192 192 192 193 195 202 209 211 215 218 224 229 232 234 238 242 247 252 255 260 261 264 267 269 270 269 267 264 260 260 261 264 267 270 275 281 283 286 289 292 295
180 183 183 182 181 185 193 193 193 196 200 201 208 215 218 222 225 230 235 238 240 244 249 255 258 262 266 269 269 269 271 275 274 271 268 269 268 271 272 276 279 282 283 287 290 293 294